Orbital Elements at Epoch 2459200.5 (2020-Dec-17.0) TDB
Reference: JPL 36 (heliocentric ecliptic J2000)
Element | Value | Uncertainty (1-sigma) | Units |
e | .05241079900834404 | 3.2076e-08 | |
a | 2.931703497661078 | 1.2368e-08 | au |
q | 2.778050574893105 | 9.2469e-08 | au |
i | 3.019679700516331 | 3.5033e-06 | deg |
node | 123.0468217641973 | 7.2521e-05 | deg |
peri | 348.4957523503627 | 8.1177e-05 | deg |
M | 158.53448829884 | 3.6938e-05 | deg |
tp | 2458393.079542233388 (2018-Oct-01.57954223) | 0.00018722 | TDB |
period | 1833.489784557542 5.02 | 1.1602e-05 3.176e-08 | d yr |
n | .1963468807037151 | 1.2425e-09 | deg/d |
Q | 3.085356420429052 | 1.3016e-08 | au |
|
| | Orbit Determination Parameters
Additional Information
|